Location: Kielce
(50.8833°N, 20.6167°E)
Time: 22:19:13
(UTC+02:00)

SR - Pass Details

Date: 27 April 2021
Orbit: 573 x 882 km, 66.7° (Epoch: 09 May)

Event Time Altitude Azimuth Distance (km) Brightness Sun altitude
Rises 09:36:52 0° 281° (W) 3,454 ? 38.5°
Reaches altitude 10° 09:40:05 10° 298° (WNW) 2,538 ? 39.0°
Maximum altitude 09:44:19 20° 344° (NNW) 1,944 ? 39.6°
Drops below altitude 10° 09:48:33 10° 30° (NNE) 2,538 ? 40.1°
Sets 09:51:46 0° 47° (NE) 3,453 ? 40.6°
